When you browse on this site, cookies collect data to enhance your experience and personalize the content and advertising you see.
Visit our Privacy Policy to learn more. By continuing to use the site, you agree to this use of cookies and data.
  • In Netherlands
  • List of Countries
  • For 7 days
  • Water Temperature
  • Weather Map
  • Weather Widgets
  • user-avatar
    Login

    Hourly Weather Saurimo

    Today, 28 February, Friday

    Time Temperature Precipitation Wind Pressure Humidity
    00:00 +20°C° 0 mm 2 mps 670 mmHg 97%
    01:00 +21°C° 0 mm 1 mps 669 mmHg 97%
    02:00 +20°C° 0 mm 1 mps 669 mmHg 98%
    03:00 +20°C° 0 mm 1 mps 669 mmHg 98%
    04:00 +20°C° 0 mm 1 mps 669 mmHg 98%
    05:00 +21°C° 0 mm 1 mps 669 mmHg 97%
    06:00 +21°C° 0 mm 1 mps 670 mmHg 96%
    07:00 +22°C° 0 mm 1 mps 671 mmHg 95%
    08:00 +23°C° 0.3 mm 1 mps 671 mmHg 89%
    09:00 +25°C° 0.3 mm 1 mps 671 mmHg 84%
    10:00 +27°C° 0.3 mm 2 mps 672 mmHg 78%
    11:00 +28°C° 0.4 mm 2 mps 671 mmHg 73%
    12:00 +28°C° 0.4 mm 2 mps 671 mmHg 68%
    13:00 +29°C° 0.4 mm 2 mps 670 mmHg 63%
    14:00 +29°C° 0.9 mm 2 mps 670 mmHg 68%
    15:00 +28°C° 0.9 mm 2 mps 669 mmHg 74%
    16:00 +27°C° 0.9 mm 1 mps 668 mmHg 79%
    17:00 +26°C° 0.8 mm 1 mps 668 mmHg 83%
    18:00 +24°C° 0.8 mm 1 mps 669 mmHg 86%
    19:00 +21°C° 0.8 mm 0 mps 669 mmHg 90%
    20:00 +21°C° 0 mm 0 mps 669 mmHg 90%
    21:00 +20°C° 0 mm 0 mps 670 mmHg 91%
    22:00 +20°C° 0 mm 0 mps 670 mmHg 91%
    23:00 +20°C° 0.1 mm 0 mps 670 mmHg 92%

    Tomorrow, 29 February, Saturday

    Time Temperature Precipitation Wind Pressure Humidity
    00:00 +20°C° 0.1 mm 0 mps 669 mmHg 92%
    01:00 +20°C° 0.1 mm 0 mps 669 mmHg 93%
    02:00 +20°C° 0.3 mm 0 mps 669 mmHg 93%
    03:00 +21°C° 0.3 mm 1 mps 669 mmHg 94%
    04:00 +21°C° 0.3 mm 1 mps 669 mmHg 94%
    05:00 +21°C° 0.1 mm 1 mps 669 mmHg 94%
    06:00 +22°C° 0.1 mm 1 mps 670 mmHg 94%
    07:00 +22°C° 0.1 mm 1 mps 670 mmHg 95%
    08:00 +21°C° 0.1 mm 2 mps 671 mmHg 93%
    09:00 +22°C° 0.1 mm 3 mps 671 mmHg 91%
    10:00 +22°C° 0.1 mm 3 mps 672 mmHg 89%
    11:00 +24°C° 0.3 mm 3 mps 671 mmHg 88%
    12:00 +24°C° 0.3 mm 3 mps 671 mmHg 87%
    13:00 +23°C° 0.3 mm 4 mps 671 mmHg 86%
    14:00 +22°C° 0.2 mm 4 mps 670 mmHg 86%
    15:00 +21°C° 0.2 mm 4 mps 670 mmHg 85%
    16:00 +21°C° 0.2 mm 4 mps 670 mmHg 85%
    17:00 +20°C° 0.1 mm 4 mps 670 mmHg 83%
    18:00 +20°C° 0.1 mm 4 mps 670 mmHg 80%
    19:00 +20°C° 0.1 mm 3 mps 670 mmHg 77%
    20:00 +20°C° 0 mm 3 mps 670 mmHg 76%
    21:00 +20°C° 0 mm 2 mps 670 mmHg 74%
    22:00 +20°C° 0 mm 2 mps 671 mmHg 72%
    23:00 +21°C° 0 mm 1 mps 670 mmHg 75%

    Day after tomorrow, 1 March, Sunday

    Time Temperature Precipitation Wind Pressure Humidity
    00:00 +21°C° 0 mm 1 mps 670 mmHg 78%
    01:00 +21°C° 0 mm 1 mps 670 mmHg 81%
    02:00 +21°C° 0 mm 1 mps 669 mmHg 81%
    03:00 +21°C° 0 mm 1 mps 669 mmHg 82%
    04:00 +21°C° 0 mm 1 mps 669 mmHg 82%
    05:00 +21°C° 0 mm 1 mps 670 mmHg 82%
    06:00 +21°C° 0 mm 1 mps 670 mmHg 83%
    07:00 +21°C° 0 mm 1 mps 671 mmHg 83%
    08:00 +23°C° 0 mm 2 mps 671 mmHg 80%
    09:00 +24°C° 0 mm 2 mps 672 mmHg 77%
    10:00 +25°C° 0 mm 2 mps 672 mmHg 75%
    11:00 +27°C° 0.4 mm 2 mps 672 mmHg 69%
    12:00 +28°C° 0.4 mm 1 mps 671 mmHg 64%
    13:00 +30°C° 0.4 mm 1 mps 671 mmHg 58%
    14:00 +29°C° 0.7 mm 1 mps 670 mmHg 65%
    15:00 +28°C° 0.7 mm 1 mps 670 mmHg 71%
    16:00 +27°C° 0.7 mm 1 mps 669 mmHg 78%
    17:00 +25°C° 0.4 mm 1 mps 669 mmHg 82%
    18:00 +24°C° 0.4 mm 1 mps 669 mmHg 87%
    19:00 +22°C° 0.4 mm 1 mps 669 mmHg 92%
    20:00 +22°C° 0 mm 1 mps 670 mmHg 92%
    21:00 +21°C° 0 mm 1 mps 670 mmHg 93%
    22:00 +19°C° 0 mm 0 mps 670 mmHg 94%
    23:00 +19°C° 0 mm 0 mps 670 mmHg 94%

    2 March, Monday

    Time Temperature Precipitation Wind Pressure Humidity
    00:00 +18°C° 0 mm 0 mps 669 mmHg 94%
    01:00 +18°C° 0 mm 0 mps 669 mmHg 95%
    02:00 +18°C° 0 mm 0 mps 669 mmHg 95%
    03:00 +19°C° 0 mm 1 mps 669 mmHg 95%
    04:00 +19°C° 0 mm 1 mps 669 mmHg 96%
    05:00 +20°C° 0 mm 1 mps 670 mmHg 94%
    06:00 +20°C° 0 mm 1 mps 670 mmHg 92%
    07:00 +19°C° 0 mm 0 mps 671 mmHg 91%
    08:00 +23°C° 0 mm 1 mps 671 mmHg 82%
    09:00 +25°C° 0 mm 2 mps 672 mmHg 74%
    10:00 +27°C° 0 mm 2 mps 673 mmHg 65%
    11:00 +28°C° 0 mm 2 mps 672 mmHg 62%
    12:00 +29°C° 0 mm 2 mps 672 mmHg 59%
    13:00 +30°C° 0 mm 1 mps 671 mmHg 56%
    14:00 +30°C° 0.2 mm 1 mps 671 mmHg 60%
    15:00 +29°C° 0.2 mm 1 mps 670 mmHg 63%
    16:00 +28°C° 0.2 mm 1 mps 669 mmHg 67%
    17:00 +26°C° 0.4 mm 1 mps 669 mmHg 74%
    18:00 +24°C° 0.4 mm 1 mps 669 mmHg 82%
    19:00 +21°C° 0.4 mm 2 mps 669 mmHg 89%
    20:00 +22°C° 0 mm 1 mps 670 mmHg 90%
    21:00 +22°C° 0 mm 1 mps 670 mmHg 92%
    22:00 +21°C° 0 mm 1 mps 671 mmHg 93%
    23:00 +21°C° 0.3 mm 1 mps 670 mmHg 94%

    3 March, Tuesday

    Time Temperature Precipitation Wind Pressure Humidity
    00:00 +21°C° 0.3 mm 1 mps 670 mmHg 95%
    01:00 +18°C° 0.3 mm 0 mps 670 mmHg 96%
    02:00 +18°C° 0.7 mm 0 mps 670 mmHg 97%
    03:00 +20°C° 0.7 mm 1 mps 670 mmHg 97%
    04:00 +20°C° 0.7 mm 1 mps 670 mmHg 98%
    05:00 +20°C° 0 mm 1 mps 670 mmHg 96%
    06:00 +19°C° 0 mm 0 mps 671 mmHg 95%
    07:00 +20°C° 0 mm 0 mps 671 mmHg 94%
    08:00 +22°C° 0 mm 0 mps 672 mmHg 83%
    09:00 +27°C° 0 mm 1 mps 672 mmHg 73%
    10:00 +30°C° 0 mm 1 mps 673 mmHg 62%
    11:00 +31°C° 0.1 mm 1 mps 673 mmHg 58%
    12:00 +32°C° 0.1 mm 1 mps 672 mmHg 54%
    13:00 +33°C° 0.1 mm 1 mps 672 mmHg 50%
    14:00 +31°C° 0.3 mm 1 mps 671 mmHg 57%
    15:00 +30°C° 0.3 mm 2 mps 670 mmHg 64%
    16:00 +28°C° 0.3 mm 2 mps 670 mmHg 70%
    17:00 +26°C° 0.4 mm 1 mps 669 mmHg 76%
    18:00 +25°C° 0.4 mm 1 mps 669 mmHg 82%
    19:00 +21°C° 0.4 mm 0 mps 669 mmHg 88%
    20:00 +20°C° 0 mm 0 mps 669 mmHg 88%
    21:00 +20°C° 0 mm 0 mps 670 mmHg 89%
    22:00 +19°C° 0 mm 0 mps 670 mmHg 89%
    23:00 +19°C° 0.1 mm 0 mps 670 mmHg 90%

    4 March, Wednesday

    Time Temperature Precipitation Wind Pressure Humidity
    00:00 +19°C° 0.1 mm 0 mps 670 mmHg 90%
    01:00 +19°C° 0.1 mm 0 mps 670 mmHg 91%
    02:00 +19°C° 0.9 mm 0 mps 670 mmHg 93%
    03:00 +18°C° 0.9 mm 0 mps 670 mmHg 94%
    04:00 +18°C° 0.9 mm 0 mps 669 mmHg 96%
    05:00 +19°C° 0.1 mm 0 mps 670 mmHg 95%
    06:00 +19°C° 0.1 mm 0 mps 671 mmHg 94%
    07:00 +20°C° 0.1 mm 0 mps 671 mmHg 92%
    08:00 +22°C° 0.6 mm 0 mps 671 mmHg 87%
    09:00 +24°C° 0.6 mm 0 mps 672 mmHg 82%
    10:00 +25°C° 0.6 mm 0 mps 672 mmHg 77%
    11:00 +28°C° 1.1 mm 1 mps 671 mmHg 70%
    12:00 +29°C° 1.1 mm 1 mps 671 mmHg 64%
    13:00 +31°C° 1.1 mm 1 mps 670 mmHg 57%
    14:00 +30°C° 0.1 mm 1 mps 670 mmHg 59%
    15:00 +30°C° 0.1 mm 1 mps 670 mmHg 60%
    16:00 +30°C° 0.1 mm 1 mps 669 mmHg 61%
    17:00 +27°C° 1 mm 1 mps 669 mmHg 70%
    18:00 +25°C° 1 mm 1 mps 669 mmHg 79%
    19:00 +22°C° 1 mm 1 mps 669 mmHg 89%
    20:00 +22°C° 0.9 mm 1 mps 669 mmHg 89%
    21:00 +21°C° 0.9 mm 1 mps 670 mmHg 89%
    22:00 +21°C° 0.9 mm 1 mps 670 mmHg 89%
    23:00 +20°C° 0 mm 1 mps 670 mmHg 90%
    Show more